スイフト-ゲーレルス彗星

64P/Swift-Gehrels (2018)

English version
Home page
Updated on October 22, 2018

---------------------------------------------------------------------

・ プロフィール

・ 写真集

・ 軌道要素

Epoch 2018 Nov. 18.0 TT = JDT 2458440.5
T 2018 Nov. 3.89469 TT                                  MPCW
q   1.3931901            (2000.0)            P               Q
n   0.10470608     Peri.   97.15130     +0.78661189     -0.60257276
a   4.4581511      Node   299.99735     +0.48712092     +0.73969650
e   0.6874960      Incl.    8.94869     +0.37941396     +0.29959165
P   9.41
From 291 observations 1991 Jan. 7-2018 Aug. 11, mean residual 0".6.
     Nongravitational parameters A1 = -0.09, A2 = +0.0494.

・ 星図

・ 光度変化

        m1 = 13.0 + 5 logΔ + 15.0 log r  [   ,-82]  (              〜2018年 8月13日)
        m1 = 10.2 + 5 logΔ + 15.0 log r  [-82,   ]  (2018年 8月13日〜              )

---------------------------------------------------------------------

軌道要素はM.P.E.C. 2018-P89に掲載されたものです。
星図はステラナビゲータ Ver.8 (アストロアーツ) で作成したものです。
光度グラフはComet for Windowsで作成したものです。

---------------------------------------------------------------------

Copyright(C) Seiichi Yoshida (comet@aerith.net). All rights reserved.